Miscellaneous Local Product
Issued by NWS Hastings, NE

Home | Current Version | Previous Version | Text Only | Print | Product List | Glossary Off
Versions: 1 2 3 4 5 6 7 8 9 10 11 12 13 14 15 16 17 18 19 20 21 22 23 24 25 26 27 28 29 30 31 32 33 34 35 36 37 38 39 40 41 42 43 44 45 46 47 48 49 50

736
AXUS43 KGID 042202
MISGRI

GID CWA HOURLY WEATHER ROUNDUP
NATIONAL WEATHER SERVICE HASTINGS NE
400 PM CST THU FEB 04 2016

NOTE: "FAIR" INDICATES FEW OR NO CLOUDS BELOW 12,000 FEET WITH NO
SIGNIFICANT WEATHER AND/OR OBSTRUCTIONS TO VISIBILITY.

...SOUTH CENTRAL NEBRASKA...

CITY           SKY/WX    TMP DP  RH WIND       PRES   REMARKS
GRAND ISLAND   SUNNY     28  17  63 N7        30.24R WCI  21
HASTINGS       SUNNY     28  17  63 W5        30.23R WCI  23
ORD            SUNNY     30  17  58 NW5       30.21R WCI  25
YORK           SUNNY     27  21  80 N5        30.24R WCI  21
AURORA         SUNNY     28  20  71 NW3       30.24R
LEXINGTON      SUNNY     28  17  62 W7        30.21R WCI  21
HOLDREGE       SUNNY     28  16  60 NW5       30.22R WCI  23
HEBRON         SUNNY     29  18  63 NW5       30.27R WCI  24

...NEBRASKA PANHANDLE...

CITY           SKY/WX    TMP DP  RH WIND       PRES   REMARKS
CHADRON        CLOUDY    32  17  54 W9        30.11S WCI  24
ALLIANCE       CLOUDY    24  16  71 W8        30.11S WCI  15
SCOTTSBLUFF    CLOUDY    32  17  54 W14       30.12R WCI  22
SIDNEY         CLOUDY    30  16  56 W12       30.14R WCI  20

...WESTERN AND NORTH CENTRAL NEBRASKA...

CITY           SKY/WX    TMP DP  RH WIND       PRES   REMARKS
VALENTINE      CLOUDY    32  15  49 CALM      30.15R
AINSWORTH      SUNNY     32  16  51 CALM      30.16S
ONEILL         SUNNY     30  17  58 CALM      30.19S
BROKEN BOW     SUNNY     32  17  54 NW5       30.18R WCI  27
IMPERIAL       SUNNY     31  16  54 NW8       30.18S WCI  23
NORTH PLATTE   SUNNY     31  17  56 VRB5      30.18R WCI  26
MCCOOK         SUNNY     30  16  56 W10       30.22R WCI  21

...EASTERN NEBRASKA...

CITY           SKY/WX    TMP DP  RH WIND       PRES   REMARKS
NORFOLK        SUNNY     29  19  66 N9        30.22R WCI  20
SO SIOUX CITY  SUNNY     30  19  63 NW16      30.23R WCI  19
TEKAMAH        MOSUNNY   30  22  72 NW10      30.24R WCI  21
COLUMBUS       SUNNY     28  14  54 NW8       30.25R WCI  20
ALBION         SUNNY     28  18  66 NW8       30.21S WCI  20
OMAHA EPPLEY   MOSUNNY   30  21  69 NW14      30.25R WCI  19
OFFUTT AFB     SUNNY     31  20  65 NW13      30.24R WCI  21
MILLARD        SUNNY     31  19  61 NW7       30.24R WCI  24
LINCOLN        SUNNY     30  18  60 NW7       30.28R WCI  23
NEBRASKA CITY  SUNNY     29  19  64 NW5       30.24S WCI  24
BEATRICE       SUNNY     29  19  65 NW8       30.26R WCI  22
FALLS CITY     SUNNY     38  17  42 NW18      30.25R WCI  28

...NORTHERN KANSAS...

CITY           SKY/WX    TMP DP  RH WIND       PRES   REMARKS
GOODLAND       SUNNY     31  12  45 W6        30.21R WCI  25
HILL CITY      SUNNY     31  16  54 W8        30.25S WCI  23
NORTON         CLEAR     28  12  50 W7        30.23  WCI  21
SMITH CENTER   SUNNY     27  16  63 CALM      30.27R
BELOIT         SUNNY     30  18  59 W7        30.28R WCI  23
HAYS           SUNNY     28  12  50 W10       30.27R WCI  19
RUSSELL        SUNNY     31  20  63 W8        30.26R WCI  23
CONCORDIA      SUNNY     29  17  61 NW12      30.27R WCI  19
SALINA         SUNNY     45  16  31 NW10      30.27R
TOPEKA         SUNNY     45  15  30 W15G22    30.26R



USA.gov is the U.S. government's official web portal to all federal, state and local government web resources and services.